Regional Weather Roundup
Issued by NWS

Home | Current Version | Previous Version | Graphics & Text | Print | Product List | Glossary On
Versions: 1 2 3 4 5 6 7 8 9 10 11 12 13 14 15 16 17 18 19 20 21 22 23 24 25 26 27 28 29 30 31 32 33 34 35 36 37 38 39 40 41 42 43 44 45 46 47 48 49 50
000
ASUS44 KMEG 070710
RWRTN
TENNESSEE HOURLY STATE WEATHER ROUNDUP
NATIONAL WEATHER SERVICE MEMPHIS TN
100 AM CST WED DEC 07 2016

TNZ002-004-019-021-049-052-054-088>092-070800-
WEST TENNESSEE

CITY           SKY/WX    TMP DP  RH WIND       PRES   REMARKS
MEMPHIS INTL   CLOUDY    45  39  81 NE10      30.10R
NWS MEMPHIS      N/A     42 N/A N/A MISG        N/A
JACKSON        CLOUDY    41  37  86 NE5       30.09S
DYERSBURG      MOCLDY   N/A N/A N/A N7        30.10R
UNION CITY     PTCLDY    36  34  93 CALM      30.10R
PARIS          CLEAR     36  32  87 N3        30.09S
HUNTINGDON       N/A     39  36  87 NE5       30.07F
LEXINGTON      CLOUDY    39  36  87 NE6       30.06F WCI  35
$$

TNZ008-025-027-028-033-062-065-066-070800-
NORTH MIDDLE TENNESSEE

CITY           SKY/WX    TMP DP  RH WIND       PRES   REMARKS
NASHVILLE      CLOUDY    40  33  76 N8        30.10R WCI  34
PORTLAND       CLOUDY    39  36  87 N6        30.10R WCI  35
CLARKSVILLE    CLOUDY    38  34  85 CALM      30.09F
SMYRNA         CLOUDY    40  35  83 N10       30.11R WCI  33
GALLATIN       CLOUDY    41  34  75 N7        30.13R
CROSSVILLE     CLOUDY    39  35  86 N7        30.03R WCI  34
$$

TNZ061-075-076-078-094-096-097-070800-
SOUTH MIDDLE TENNESSEE

CITY           SKY/WX    TMP DP  RH WIND       PRES   REMARKS
FAYETTEVILLE   CLOUDY    43  39  87 N8        30.04R
TULLAHOMA      CLOUDY    39  37  93 N9        30.05S WCI  33
WINCHESTER     CLOUDY    43  37  81 N5        30.04F
MCMINNVILLE    CLOUDY    41  39  93 N8          N/A
COLUMBIA       CLOUDY    41  41 100 NE8       30.07R
SHELBYVILLE    CLOUDY    43  39  87 N8        30.07S
$$

TNZ017-018-042-046-047-070800-
NORTHEAST TENNESSEE

CITY           SKY/WX    TMP DP  RH WIND       PRES   REMARKS
TRI CITIES     MOCLDY    46  42  86 NW8       30.00R
$$

TNZ012-013-036-069-073-074-070800-
CENTRAL EAST TENNESSEE

CITY           SKY/WX    TMP DP  RH WIND       PRES   REMARKS
KNOXVILLE      PTCLDY    44  38  79 N7        30.01R
OAK RIDGE      PTCLDY    39  36  89 CALM      30.05R
DOWNTOWN KNOXV CLEAR     43  39  87 CALM      30.04R
GATLINBURG     CLOUDY    45  37  76 NW3       30.02R
MORRISTOWN     MOCLDY    43  39  87 NW5       30.01R
JACKSBORO      CLOUDY    45  36  70 VRB3G14   30.07R
$$

TNZ083-085-099-070800-
SOUTHEAST TENNESSEE

CITY           SKY/WX    TMP DP  RH WIND       PRES   REMARKS
CHATTANOOGA    MOCLDY    46  38  73 N10       30.04R
$$

SKY/WX REPORTED AS FAIR MEANS FEW OR NO CLOUDS BELOW
12 THOUSAND FEET.





USA.gov is the U.S. government's official web portal to all federal, state and local government web resources and services.